Time,TemperatureF,DewpointF,PressureIn,WindDirection,WindDirectionDegrees,WindSpeedMPH,WindSpeedGustMPH,Humidity,HourlyPrecipIn,Conditions,Clouds,dailyrainin,SoftwareType,DateUTC
2013-02-18 00:00:00,22.5,15.0,30.20,SSE,150,1.0,2.0,74,0.00,,,0.00,weatherlink.com 1.10,2013-02-18 05:00:00,
2013-02-18 00:15:00,22.5,15.0,30.21,SW,232,0.0,4.0,74,0.00,,,0.00,weatherlink.com 1.10,2013-02-18 05:15:00,
2013-02-18 00:30:00,22.8,15.0,30.20,SSE,158,0.0,3.0,72,0.00,,,0.00,weatherlink.com 1.10,2013-02-18 05:30:00,
2013-02-18 00:45:00,22.5,15.0,30.20,SSW,194,0.0,3.0,73,0.00,,,0.00,weatherlink.com 1.10,2013-02-18 05:45:00,
2013-02-18 01:00:00,22.1,15.0,30.20,South,191,0.0,3.0,74,0.00,,,0.00,weatherlink.com 1.10,2013-02-18 06:00:00,
2013-02-18 01:15:00,21.9,15.0,30.19,SSW,201,0.0,4.0,74,0.00,,,0.00,weatherlink.com 1.10,2013-02-18 06:15:00,
2013-02-18 01:30:00,21.7,15.0,30.19,SE,126,0.0,3.0,75,0.00,,,0.00,weatherlink.com 1.10,2013-02-18 06:30:00,
2013-02-18 01:45:00,21.4,15.0,30.19,South,177,0.0,3.0,75,0.00,,,0.00,weatherlink.com 1.10,2013-02-18 06:45:00,
2013-02-18 02:00:00,21.3,15.0,30.19,ESE,105,1.0,3.0,75,0.00,,,0.00,weatherlink.com 1.10,2013-02-18 07:00:00,
2013-02-18 02:15:00,21.4,15.0,30.19,East,101,0.0,6.0,75,0.00,,,0.00,weatherlink.com 1.10,2013-02-18 07:15:00,
2013-02-18 02:30:00,21.3,14.0,30.18,SE,135,0.0,3.0,74,0.00,,,0.00,weatherlink.com 1.10,2013-02-18 07:30:00,
2013-02-18 02:45:00,21.7,15.0,30.18,SSE,150,0.0,4.0,74,0.00,,,0.00,weatherlink.com 1.10,2013-02-18 07:45:00,
2013-02-18 03:00:00,21.8,14.0,30.17,ESE,109,1.0,4.0,73,0.00,,,0.00,weatherlink.com 1.10,2013-02-18 08:00:00,
2013-02-18 03:15:00,21.7,15.0,30.16,East,97,1.0,3.0,74,0.00,,,0.00,weatherlink.com 1.10,2013-02-18 08:15:00,
2013-02-18 03:31:00,21.8,15.0,30.15,SE,127,1.0,6.0,74,0.00,,,0.00,weatherlink.com 1.10,2013-02-18 08:31:00,
2013-02-18 03:46:00,21.9,15.0,30.14,WSW,246,0.0,3.0,74,0.00,,,0.00,weatherlink.com 1.10,2013-02-18 08:46:00,
2013-02-18 04:01:00,22.3,15.0,30.14,SE,128,2.0,4.0,73,0.00,,,0.00,weatherlink.com 1.10,2013-02-18 09:01:00,
2013-02-18 04:16:00,22.5,15.0,30.13,East,95,0.0,3.0,73,0.00,,,0.00,weatherlink.com 1.10,2013-02-18 09:16:00,
2013-02-18 04:31:00,22.6,15.0,30.12,ESE,103,1.0,5.0,72,0.00,,,0.00,weatherlink.com 1.10,2013-02-18 09:31:00,
2013-02-18 04:46:00,22.5,15.0,30.11,ESE,109,0.0,5.0,72,0.00,,,0.00,weatherlink.com 1.10,2013-02-18 09:46:00,
2013-02-18 05:01:00,22.7,15.0,30.11,East,83,0.0,5.0,73,0.00,,,0.00,weatherlink.com 1.10,2013-02-18 10:01:00,
2013-02-18 05:16:00,22.8,15.0,30.10,SE,125,1.0,7.0,72,0.00,,,0.00,weatherlink.com 1.10,2013-02-18 10:16:00,
2013-02-18 05:31:00,23.1,15.0,30.09,ENE,65,1.0,6.0,71,0.00,,,0.00,weatherlink.com 1.10,2013-02-18 10:31:00,
2013-02-18 05:46:00,23.1,15.0,30.08,SSE,153,2.0,6.0,72,0.00,,,0.00,weatherlink.com 1.10,2013-02-18 10:46:00,
2013-02-18 06:01:00,23.3,15.0,30.07,SSE,160,2.0,9.0,71,0.00,,,0.00,weatherlink.com 1.10,2013-02-18 11:01:00,
2013-02-18 06:31:00,23.7,16.0,30.05,East,98,2.0,10.0,71,0.00,,,0.00,weatherlink.com 1.10,2013-02-18 11:31:00,
2013-02-18 06:46:00,24.0,16.0,30.04,WSW,246,1.0,5.0,70,0.00,,,0.00,weatherlink.com 1.10,2013-02-18 11:46:00,
2013-02-18 07:01:00,24.2,16.0,30.04,SE,144,0.0,4.0,71,0.00,,,0.00,weatherlink.com 1.10,2013-02-18 12:01:00,
2013-02-18 07:16:00,24.3,16.0,30.02,East,100,1.0,6.0,71,0.00,,,0.00,weatherlink.com 1.10,2013-02-18 12:16:00,
2013-02-18 07:31:00,24.3,16.0,30.02,West,260,1.0,7.0,72,0.00,,,0.00,weatherlink.com 1.10,2013-02-18 12:31:00,
2013-02-18 07:46:00,24.6,17.0,30.02,South,169,0.0,5.0,72,0.00,,,0.00,weatherlink.com 1.10,2013-02-18 12:46:00,
2013-02-18 08:01:00,24.9,17.0,30.02,SSW,202,1.0,9.0,72,0.00,,,0.00,weatherlink.com 1.10,2013-02-18 13:01:00,
2013-02-18 08:16:00,26.1,18.0,30.01,SE,124,2.0,6.0,71,0.00,,,0.00,weatherlink.com 1.10,2013-02-18 13:16:00,
2013-02-18 08:31:00,26.9,18.0,30.01,SSE,150,3.0,8.0,70,0.00,,,0.00,weatherlink.com 1.10,2013-02-18 13:31:00,
2013-02-18 08:46:00,28.0,19.0,30.00,SSE,164,0.0,9.0,68,0.00,,,0.00,weatherlink.com 1.10,2013-02-18 13:46:00,
2013-02-18 09:02:00,29.4,20.0,30.00,SE,146,7.0,9.0,67,0.00,,,0.00,weatherlink.com 1.10,2013-02-18 14:02:00,
2013-02-18 09:17:00,30.5,20.0,29.99,SW,232,8.0,17.0,65,0.00,,,0.00,weatherlink.com 1.10,2013-02-18 14:17:00,
2013-02-18 09:32:00,31.3,21.0,29.98,South,186,0.0,11.0,66,0.00,,,0.00,weatherlink.com 1.10,2013-02-18 14:32:00,
2013-02-18 09:47:00,32.3,21.0,29.98,SSE,148,0.0,12.0,64,0.00,,,0.00,weatherlink.com 1.10,2013-02-18 14:47:00,
2013-02-18 10:02:00,33.0,22.0,29.97,SSW,200,4.0,13.0,65,0.00,,,0.00,weatherlink.com 1.10,2013-02-18 15:02:00,
2013-02-18 10:17:00,34.4,23.0,29.97,SSE,148,3.0,18.0,64,0.00,,,0.00,weatherlink.com 1.10,2013-02-18 15:17:00,
2013-02-18 10:32:00,36.3,25.0,29.96,WSW,242,2.0,13.0,63,0.00,,,0.00,weatherlink.com 1.10,2013-02-18 15:32:00,
2013-02-18 10:47:00,37.9,25.0,29.95,SW,221,4.0,9.0,61,0.00,,,0.00,weatherlink.com 1.10,2013-02-18 15:47:00,
2013-02-18 11:02:00,39.2,27.0,29.96,SW,229,4.0,10.0,61,0.00,,,0.00,weatherlink.com 1.10,2013-02-18 16:02:00,
2013-02-18 11:17:00,40.9,28.0,29.95,SW,214,5.0,9.0,60,0.00,,,0.00,weatherlink.com 1.10,2013-02-18 16:17:00,
2013-02-18 11:32:00,42.1,30.0,29.93,SW,230,2.0,8.0,62,0.00,,,0.00,weatherlink.com 1.10,2013-02-18 16:32:00,
2013-02-18 11:47:00,42.9,30.0,29.92,SW,228,2.0,10.0,60,0.00,,,0.00,weatherlink.com 1.10,2013-02-18 16:47:00,
2013-02-18 12:02:00,44.6,31.0,29.91,South,190,5.0,8.0,59,0.00,,,0.00,weatherlink.com 1.10,2013-02-18 17:02:00,
2013-02-18 12:17:00,45.6,32.0,29.90,SSW,203,3.0,12.0,60,0.00,,,0.00,weatherlink.com 1.10,2013-02-18 17:17:00,
2013-02-18 12:32:00,47.1,34.0,29.90,South,175,3.0,7.0,60,0.00,,,0.00,weatherlink.com 1.10,2013-02-18 17:32:00,
2013-02-18 12:47:00,48.5,35.0,29.89,SW,229,4.0,7.0,59,0.00,,,0.00,weatherlink.com 1.10,2013-02-18 17:47:00,
2013-02-18 13:03:00,49.0,35.0,29.88,WSW,242,6.0,9.0,59,0.00,,,0.00,weatherlink.com 1.10,2013-02-18 18:03:00,
2013-02-18 13:18:00,50.1,35.0,29.87,South,188,5.0,11.0,57,0.00,,,0.00,weatherlink.com 1.10,2013-02-18 18:18:00,
2013-02-18 13:33:00,50.4,36.0,29.86,SSW,213,4.0,10.0,58,0.00,,,0.00,weatherlink.com 1.10,2013-02-18 18:33:00,
2013-02-18 13:48:00,51.0,36.0,29.85,East,85,5.0,8.0,58,0.00,,,0.00,weatherlink.com 1.10,2013-02-18 18:48:00,
2013-02-18 14:03:00,50.9,37.0,29.84,SW,219,7.0,10.0,59,0.00,,,0.00,weatherlink.com 1.10,2013-02-18 19:03:00,
2013-02-18 14:18:00,50.9,37.0,29.84,SSW,195,3.0,11.0,60,0.00,,,0.00,weatherlink.com 1.10,2013-02-18 19:18:00,
2013-02-18 14:33:00,51.7,38.0,29.83,SSW,213,4.0,11.0,59,0.00,,,0.00,weatherlink.com 1.10,2013-02-18 19:33:00,
2013-02-18 14:48:00,51.4,38.0,29.82,SW,234,10.0,13.0,60,0.00,,,0.00,weatherlink.com 1.10,2013-02-18 19:48:00,
2013-02-18 15:03:00,52.4,39.0,29.81,SW,236,2.0,11.0,60,0.00,,,0.00,weatherlink.com 1.10,2013-02-18 20:03:00,
2013-02-18 15:18:00,52.1,38.0,29.81,SW,219,5.0,8.0,60,0.00,,,0.00,weatherlink.com 1.10,2013-02-18 20:18:00,
2013-02-18 15:33:00,51.4,39.0,29.80,SW,222,3.0,9.0,62,0.00,,,0.00,weatherlink.com 1.10,2013-02-18 20:33:00,
2013-02-18 15:48:00,50.8,38.0,29.80,SW,221,4.0,11.0,63,0.00,,,0.00,weatherlink.com 1.10,2013-02-18 20:48:00,
2013-02-18 16:03:00,49.6,39.0,29.78,South,186,5.0,9.0,68,0.00,,,0.00,weatherlink.com 1.10,2013-02-18 21:03:00,
2013-02-18 16:18:00,48.8,40.0,29.78,SW,219,2.0,7.0,72,0.00,,,0.00,weatherlink.com 1.10,2013-02-18 21:18:00,
2013-02-18 16:33:00,48.0,40.0,29.77,SSE,162,1.0,7.0,74,0.00,,,0.00,weatherlink.com 1.10,2013-02-18 21:33:00,
2013-02-18 16:48:00,46.9,41.0,29.77,WSW,244,0.0,4.0,80,0.01,,,0.01,weatherlink.com 1.10,2013-02-18 21:48:00,
2013-02-18 17:03:00,45.3,41.0,29.76,SSE,168,0.0,2.0,86,0.02,,,0.02,weatherlink.com 1.10,2013-02-18 22:03:00,
2013-02-18 17:18:00,44.3,41.0,29.76,SSW,199,0.0,2.0,88,0.02,,,0.02,weatherlink.com 1.10,2013-02-18 22:18:00,
2013-02-18 17:33:00,44.1,41.0,29.75,SSW,198,0.0,0.0,90,0.03,,,0.03,weatherlink.com 1.10,2013-02-18 22:33:00,
2013-02-18 17:48:00,43.6,41.0,29.75,SE,137,0.0,3.0,91,0.03,,,0.04,weatherlink.com 1.10,2013-02-18 22:48:00,
2013-02-18 18:03:00,43.8,42.0,29.75,SW,220,2.0,5.0,92,0.03,,,0.05,weatherlink.com 1.10,2013-02-18 23:03:00,
2013-02-18 18:18:00,43.6,42.0,29.75,SSW,194,3.0,3.0,93,0.04,,,0.06,weatherlink.com 1.10,2013-02-18 23:18:00,
2013-02-18 18:33:00,45.7,43.0,29.73,SSW,192,2.0,7.0,89,0.04,,,0.07,weatherlink.com 1.10,2013-02-18 23:33:00,
2013-02-18 18:48:00,46.2,43.0,29.73,SSW,212,3.0,8.0,87,0.03,,,0.07,weatherlink.com 1.10,2013-02-18 23:48:00,
2013-02-18 19:03:00,45.6,43.0,29.73,SW,234,2.0,6.0,89,0.02,,,0.07,weatherlink.com 1.10,2013-02-19 00:03:00,
2013-02-18 19:18:00,45.9,42.0,29.73,SW,224,3.0,10.0,85,0.02,,,0.08,weatherlink.com 1.10,2013-02-19 00:18:00,
2013-02-18 19:33:00,45.8,42.0,29.72,SW,223,4.0,7.0,85,0.01,,,0.08,weatherlink.com 1.10,2013-02-19 00:33:00,
2013-02-18 19:48:00,45.5,41.0,29.71,SW,223,3.0,9.0,84,0.02,,,0.09,weatherlink.com 1.10,2013-02-19 00:48:00,
2013-02-18 20:03:00,45.3,41.0,29.70,SW,219,3.0,7.0,84,0.01,,,0.09,weatherlink.com 1.10,2013-02-19 01:03:00,
2013-02-18 20:18:00,45.6,40.0,29.69,WSW,238,4.0,11.0,82,0.01,,,0.09,weatherlink.com 1.10,2013-02-19 01:18:00,
2013-02-18 20:33:00,46.0,41.0,29.67,SW,221,4.0,11.0,81,0.00,,,0.09,weatherlink.com 1.10,2013-02-19 01:33:00,
2013-02-18 20:48:00,46.1,40.0,29.67,SW,218,3.0,11.0,80,0.00,,,0.09,weatherlink.com 1.10,2013-02-19 01:48:00,
2013-02-18 21:04:00,45.6,40.0,29.66,SW,215,2.0,9.0,81,0.00,,,0.09,weatherlink.com 1.10,2013-02-19 02:04:00,
2013-02-18 21:19:00,45.3,40.0,29.66,WSW,242,4.0,11.0,82,0.00,,,0.09,weatherlink.com 1.10,2013-02-19 02:19:00,
2013-02-18 21:34:00,44.0,40.0,29.65,SSW,205,0.0,7.0,87,0.01,,,0.10,weatherlink.com 1.10,2013-02-19 02:34:00,
2013-02-18 21:49:00,43.4,40.0,29.64,SSW,195,1.0,9.0,89,0.03,,,0.12,weatherlink.com 1.10,2013-02-19 02:49:00,
2013-02-18 22:04:00,43.5,41.0,29.64,SSW,192,2.0,10.0,90,0.04,,,0.13,weatherlink.com 1.10,2013-02-19 03:04:00,
2013-02-18 22:19:00,43.3,41.0,29.62,SSW,209,5.0,9.0,90,0.06,,,0.15,weatherlink.com 1.10,2013-02-19 03:19:00,
2013-02-18 22:34:00,43.6,41.0,29.61,WSW,239,4.0,14.0,90,0.08,,,0.18,weatherlink.com 1.10,2013-02-19 03:34:00,
2013-02-18 22:49:00,43.8,41.0,29.61,WSW,242,5.0,11.0,91,0.08,,,0.20,weatherlink.com 1.10,2013-02-19 03:49:00,
2013-02-18 23:04:00,43.7,41.0,29.60,SSE,161,5.0,16.0,91,0.07,,,0.20,weatherlink.com 1.10,2013-02-19 04:04:00,
2013-02-18 23:19:00,43.9,41.0,29.58,SW,232,9.0,15.0,90,0.05,,,0.20,weatherlink.com 1.10,2013-02-19 04:19:00,
2013-02-18 23:34:00,44.2,41.0,29.57,SW,234,6.0,17.0,89,0.03,,,0.01,weatherlink.com 1.10,2013-02-19 04:34:00,
2013-02-18 23:49:00,44.1,41.0,29.56,SW,221,5.0,18.0,89,0.01,,,0.01,weatherlink.com 1.10,2013-02-19 04:49:00,